"Pseudo-MPEC" for P22l2fh

Created 2026 Feb 11 16:35:12 UT using Find_Orb

Click here for an explanation of pseudo-MPECs

 
 Astrometry: 
     P22l2fh*0C2026 01 27.49262611 20 28.037+29 43 13.40   ~29Bo 21.43wXNEOCPF52
     P22l2fh 0C2026 01 27.50435911 20 29.093+29 43 16.38   ~29Bo 22.30wXNEOCPF52
     P22l2fh 0C2026 01 27.51604311 20 30.138+29 43 19.44   ~29Bo 22.14wXNEOCPF52
     P22l2fh 0C2026 01 27.52789711 20 31.231+29 43 22.89   ~29Bo 22.18wXNEOCPF52
     P22l2fh  C2026 01 28.27047211 21 45.210+29 46 17.79   ~29Bo 21.5 GWNEOCPH01
     P22l2fh  C2026 01 28.27351711 21 45.485+29 46 18.71   ~29Bo 21.6 GWNEOCPH01
     P22l2fh  C2026 01 28.28390311 21 46.438+29 46 21.81   ~29Bo 21.4 GWNEOCPH01
     P22l2fh  C2026 01 28.29417311 21 47.367+29 46 24.66   ~29Bo 21.8 GWNEOCPH01
     P22l2fh 1C2026 01 31.37903111 26 32.320+29 58 07.32   ~29Bo 21.78GVNEOCPV06
     P22l2fh 1C2026 01 31.38499811 26 32.790+29 58 09.20   ~29Bo       VNEOCPV06
     P22l2fh 1C2026 01 31.39096311 26 33.240+29 58 10.90   ~29Bo       VNEOCPV06
     P22l2fh 1C2026 01 31.39676611 26 33.650+29 58 11.90   ~29Bo       VNEOCPV06
     P22l2fh 0C2026 02 05.29404611 33 05.220+30 12 24.40   ~29Bo 21.7 RVNEOCP291
     P22l2fh 0C2026 02 05.31193011 33 06.370+30 12 27.50   ~29Bo 21.4 RVNEOCP291
     P22l2fh  C2026 02 05.45082011 33 14.888+30 12 47.25   ~29Bo 21.3 GWNEOCPH01
     P22l2fh  C2026 02 05.45514311 33 15.158+30 12 47.83   ~29Bo 21.5 GWNEOCPH01
     P22l2fh  C2026 02 05.46569211 33 15.809+30 12 49.08   ~29Bo 21.2 GWNEOCPH01
     P22l2fh  C2026 02 05.47150811 33 16.178+30 12 49.75   ~29Bo 22.0 GWNEOCPH01
     P22l2fh KC2026 02 09.26736811 37 22.04 +30 19 15.9    ~29Bo 21.5 GVNEOCPH21
     P22l2fh KC2026 02 09.27016811 37 22.20 +30 19 15.9    ~29Bo 21.7 GVNEOCPH21
     P22l2fh KC2026 02 09.27296711 37 22.33 +30 19 15.9    ~29Bo 22.0 GVNEOCPH21
     P22l2fh KC2026 02 09.27921911 37 22.62 +30 19 16.7    ~29Bo 21.7 GVNEOCPH21
     P22l2fh 1C2026 02 10.39177011 38 24.290+30 20 22.50   ~2AAZ 21.5 RVNEOCP691
     P22l2fh 1C2026 02 10.40994011 38 25.120+30 20 23.30   ~2AAZ 20.9 RVNEOCP691

Station data:
(291) LPL/Spacewatch II  (N31.961669 W111.599905)  US/Arizona.  Observers J.
   V. Scotti, R. S. McMillan. 1.8-m f/2.7 reflector + CCD.
(691) Steward Observatory, Kitt Peak - Spacewatch  (N31.962174 W111.600327)
   US/Arizona.  Observer J. V. Scotti. 0.9-m f/3 reflector + CCD.
(F52) Pan-STARRS 2, Haleakala  (N20.707382 W156.255910)  US/Hawaii.
   Observers J. Herman, T. Lowe, P. Minguez, A. Schultz, I. Smith. Measurers
   K. Chambers, T. de Boer, J. Fairlamb, H. Gao, M. Huber, C.-C. Lin, E.
   Magnier, Y. Ramanjooloo, R. Wainscoat, R. Weryk. 1.8-m Ritchey-Chrétien +
   CCD.
(H01) Magdalena Ridge Observatory, Socorro  (N33.984833 W107.189333)  US/New
   Mexico.  Observers W. H. Ryan, E. V. Ryan. Measurer W. H. Ryan. 2.4-m
   f/8.9 reflector + CCD.
(H21) Astronomical Research Observatory, Westfield  (N39.483054 W87.968270)
   US/Illinois.  Observer R. Holmes. Measurers S. Foglia, L. Buzzi, T.
   Linder, R. Holmes. 0.40-m f/5.32 astrograph + CCD.
(V06) Catalina Sky Survey-Kuiper  (N32.416871 W110.732550)  US/Arizona.
   Measurers T. Beuden, V. F. Carvajal, D. Fay, J. B. Fazekas, D. C. Fuls, A.
   R. Gibbs, A. D. Grauer, H. Gröller, J. K. Hogan, R. A. Kowalski, S. M.
   Larson, G. J. Leonard, D. Rankin, R. L. Seaman, F. C. Shelly, K. W.
   Wierzchoś. 1.55-m reflector + CCD.

Orbital elements:  P22l2fh
   Perihelion 2026 Feb 7.442942 +/- 0.215 TT = 10:37:50.2 (JD 2461078.942942)
Epoch 2026 Feb 10.0 TT = JDT 2461081.5   Earth MOID: 0.3433   Ma: 0.0500
M   0.730533676 +/- 0.053           (J2000 ecliptic)             AutoNEOCP
n   0.285693061 +/- 0.00308         Peri.   86.956903 +/- 0.36
a   2.283159511 +/- 0.0164          Node    57.124215 +/- 0.21
e   0.42921690 +/- 0.00335          Incl.    6.813916 +/- 0.027
P   3.44988                H 22.26  G  0.15   U  8.9
q 1.303188851 +/- 0.00172    Q 3.263130172 +/- 0.0311
From 24 observations 2026 Jan. 27-Feb. 10; mean residual 0".38
Residuals in arcseconds: 
260127 F52  .10-  .06+    260131 V06  .04-  .47+    260205 H01  .18+  .29-    
260127 F52  .09-  .18-    260131 V06  .02-  1.0+    260205 H01  .29+  .26-    
260127 F52  .12-  .27-    260131 V06  .25-  1.4+    260209 H21  .00   .21+    
260127 F52  .31+  .03+    260131 V06  .83-  1.1+    260209 H21  .27+  .05-    
260128 H01  .22+  .03-    260205 291  .20-  .21-    260209 H21  .16+  .31-    
260128 H01  .16+  .00     260205 291  .14-  .33-    260209 H21  .08-  .08-    
260128 H01  .21+  .10+    260205 H01  .18+  .42-    260210 691  .36-  .17+    
260128 H01  .15+  .01+    260205 H01  .22+  .34-    260210 691  .10+  .13+    

Ephemerides (geocentric):
Date (UTC) HH   RA             Dec           delta  r     elong  mag " sig PA
---- --------  ------------   ------------  ------ ------ -----  --- --------
2026 02 11 17  11 39 32.083   +30 21 02.57  .35734 1.3039 148.0 21.7 .416  26
2026 02 11 18  11 39 34.133   +30 21 03.20  .35730 1.3039 148.0 21.7 .426  26
2026 02 11 19  11 39 36.177   +30 21 03.80  .35726 1.3039 148.0 21.7 .436  27
2026 02 11 20  11 39 38.216   +30 21 04.36  .35722 1.3039 148.0 21.7 .446  27
2026 02 11 21  11 39 40.248   +30 21 04.88  .35718 1.3039 148.0 21.7 .456  27
2026 02 11 22  11 39 42.274   +30 21 05.36  .35713 1.3039 148.1 21.7 .467  27
2026 02 11 23  11 39 44.294   +30 21 05.80  .35709 1.3040 148.1 21.7 .477  27
2026 02 12 00  11 39 46.308   +30 21 06.21  .35705 1.3040 148.1 21.7 .488  27
2026 02 12 01  11 39 48.315   +30 21 06.57  .35701 1.3040 148.1 21.7 .499  28
2026 02 12 02  11 39 50.317   +30 21 06.90  .35697 1.3040 148.1 21.7 .509  28
2026 02 12 03  11 39 52.313   +30 21 07.18  .35693 1.3040 148.2 21.7 .520  28
2026 02 12 04  11 39 54.303   +30 21 07.43  .35689 1.3040 148.2 21.7 .531  28
2026 02 12 05  11 39 56.287   +30 21 07.64  .35685 1.3040 148.2 21.7 .543  28
2026 02 12 06  11 39 58.264   +30 21 07.81  .35681 1.3041 148.2 21.7 .554  29
2026 02 12 07  11 40 00.236   +30 21 07.94  .35677 1.3041 148.2 21.7 .565  29
2026 02 12 08  11 40 02.201   +30 21 08.03  .35673 1.3041 148.2 21.7 .577  29
2026 02 12 09  11 40 04.161   +30 21 08.08  .35669 1.3041 148.3 21.7 .589  29
2026 02 12 10  11 40 06.115   +30 21 08.09  .35666 1.3041 148.3 21.7 .600  29
2026 02 12 11  11 40 08.062   +30 21 08.06  .35662 1.3041 148.3 21.7 .612  29
2026 02 12 12  11 40 10.004   +30 21 07.99  .35658 1.3041 148.3 21.7 .624  29
2026 02 12 13  11 40 11.939   +30 21 07.88  .35654 1.3042 148.3 21.7 .636  30
2026 02 12 14  11 40 13.868   +30 21 07.73  .35650 1.3042 148.3 21.7 .649  30
2026 02 12 15  11 40 15.792   +30 21 07.55  .35646 1.3042 148.4 21.7 .661  30
2026 02 12 16  11 40 17.709   +30 21 07.32  .35643 1.3042 148.4 21.7 .674  30
2026 02 12 17  11 40 19.621   +30 21 07.05  .35639 1.3042 148.4 21.7 .686  30
2026 02 12 18  11 40 21.526   +30 21 06.74  .35635 1.3042 148.4 21.7 .699  30
2026 02 12 19  11 40 23.425   +30 21 06.39  .35631 1.3043 148.4 21.7 .712  30
2026 02 12 20  11 40 25.319   +30 21 06.00  .35628 1.3043 148.4 21.7 .725  30
2026 02 12 21  11 40 27.206   +30 21 05.58  .35624 1.3043 148.5 21.7 .738  31
2026 02 12 22  11 40 29.087   +30 21 05.11  .35620 1.3043 148.5 21.7 .751  31
2026 02 12 23  11 40 30.963   +30 21 04.60  .35617 1.3043 148.5 21.7 .765  31
2026 02 13 00  11 40 32.832   +30 21 04.05  .35613 1.3043 148.5 21.7 .778  31
2026 02 13 01  11 40 34.695   +30 21 03.46  .35609 1.3044 148.5 21.7 .792  31
2026 02 13 02  11 40 36.552   +30 21 02.82  .35606 1.3044 148.6 21.7 .806  31
2026 02 13 03  11 40 38.404   +30 21 02.15  .35602 1.3044 148.6 21.7 .820  31
2026 02 13 04  11 40 40.249   +30 21 01.44  .35598 1.3044 148.6 21.7 .834  31
2026 02 13 05  11 40 42.088   +30 21 00.68  .35595 1.3044 148.6 21.7 .848  31
2026 02 13 06  11 40 43.922   +30 20 59.89  .35591 1.3044 148.6 21.7 .862  32
2026 02 13 07  11 40 45.749   +30 20 59.05  .35588 1.3045 148.6 21.7 .877  32
2026 02 13 08  11 40 47.570   +30 20 58.17  .35584 1.3045 148.7 21.7 .891  32
2026 02 13 09  11 40 49.386   +30 20 57.26  .35581 1.3045 148.7 21.7 .906  32
2026 02 13 10  11 40 51.195   +30 20 56.30  .35577 1.3045 148.7 21.7 .921  32
2026 02 13 11  11 40 52.998   +30 20 55.30  .35574 1.3045 148.7 21.7 .936  32
2026 02 13 12  11 40 54.796   +30 20 54.25  .35570 1.3046 148.7 21.7 .951  32
2026 02 13 13  11 40 56.587   +30 20 53.17  .35567 1.3046 148.7 21.7 .966  32
2026 02 13 14  11 40 58.373   +30 20 52.04  .35564 1.3046 148.8 21.7 .981  32
2026 02 13 15  11 41 00.152   +30 20 50.88  .35560 1.3046 148.8 21.7 1.00  32
2026 02 13 16  11 41 01.926   +30 20 49.67  .35557 1.3046 148.8 21.7 1.01  33